Tracking 26894 objects as of 2-Feb-2023
HD Live streaming from Space Station
objects crossing your sky now

NOAA 17 DEB

Track NOAA 17 DEB now!
10-day predictions


NORAD ID: 48726
Int'l Code: 2002-032BL
Perigee: 691.6 km
Apogee: 776.5 km
Inclination: 99.0 °
Period: 99.3 minutes
Semi major axis: 7105 km
RCS: Unknown
Launch date: June 24, 2002
Source: United States (US)
Launch site: AIR FORCE WESTERN TEST RANGE (AFWTR)

Note: This is SATELLITE DEBRIS
Your satellite tracking list
Your tracking list is empty




NASA's NSSDC Master Catalog

Two Line Element Set (TLE):
1 48726U 02032BK  23032.41813874  .00010762  00000-0  27471-2 0  9999
2 48726  98.9747  26.7781 0059777 114.8976 245.8445 14.49621963 94915
Source of the keplerian elements: AFSPC